Volver al catálogo

FENGYUN 1C DEB

ActivoSSO
NORAD 31014·DEBRIS·🇨🇳 China

Lanzado May 10, 1999 desde Taiyuan Satellite Launch Center

Loading…

Próximos Pases (próximas 24 horas)

TLE

ActualizadoSource: Space-Track

Época: Sep 14, 2026, 10:00 UTC

1 31014U 99025BDG 26257.41703595 -.00000256  00000-0 -14406-3 0  9993
2 31014  98.9013 229.5070 0088596 151.0432   1.1107 13.98583369996894

Sigue FENGYUN 1C DEB en tiempo real con AllMySat

Download on the App Store